[[{"header":{"parameterUnit":"m.s-1","parameterCategory":1,"la1":30.2991,"la2":30.254,"lo1":-89.0895,"lo2":-89.0444,"dy":0.0017,"dx":0.0017,"nx":28,"ny":28,"refTime":"2026-02-02T09:00:00:Z","depth":0,"parameterNumber":2,"parameterNumberName":"U-component_of_WINDS"},"data":[0,0,0,0,0,0,0,0,0,0,0,0,0,0,0,0,0,0,0,0,0,0,0,0,0,0,0,0,0,0,0,0,0,0,0,0,0,0,0,0,0,0,0,0,0,0,0,0,0,0,0,0,0,0,0,0,0,0,1.5407,1.5407,0,1.5448,1.5449,1.5449,1.5471,1.5471,1.5471,1.5471,1.5513,1.5514,1.5515,0,0,0,0,0,0,0,0,0,0,0,0,0,1.5346,1.5347,1.5406,1.5407,1.5408,1.5448,1.5449,1.5449,1.5471,1.5471,1.5471,1.5471,1.5513,1.5514,1.5515,0,0,0,0,0,0,0,0,0,0,0,0,0,1.5378,1.5347,1.5406,1.5423,1.5425,1.5448,1.5449,1.5449,1.5471,1.5471,1.5471,1.5471,1.5512,1.5514,1.5516,1.5525,0,0,1.5521,1.5521,0,0,0,0,0,0,0,0,1.5376,1.538,1.542,1.5422,1.5424,1.5454,1.5443,1.5475,1.5471,1.5453,1.5471,1.5471,1.5493,1.5497,1.5504,1.5527,1.5529,1.5521,1.5522,1.5522,1.5523,0,0,0,0,0,0,0,1.5374,1.5379,1.5423,1.5421,1.5423,1.5429,1.5433,1.5449,1.5473,1.5455,1.5457,1.5461,1.5495,1.5503,1.5506,1.5529,1.5521,1.5522,1.5523,1.5524,1.5563,1.5563,0,0,0,0,0,0,1.5369,1.5377,1.5422,1.5424,1.54,1.543,1.5435,1.5445,1.5473,1.5477,1.5461,1.5462,1.55,1.5504,1.5507,1.5521,1.5522,1.5524,1.5525,1.5563,1.5563,1.5563,0,0,0,0,0,0,1.5368,1.5373,1.542,1.5401,1.5407,1.5431,1.5441,1.5445,1.5454,1.5477,1.5482,1.5465,1.55,1.5505,1.5521,1.5523,1.5525,1.5526,1.5563,1.5563,1.5563,1.5548,0,0,0,0,0,0,1.5366,1.5372,1.5376,1.5401,1.5408,1.5433,1.5442,1.5446,1.5457,1.5458,1.5482,1.5486,1.5501,1.5518,1.5522,1.5525,1.5527,1.5563,1.5563,1.5563,1.5548,1.5547,1.5546,0,0,0,0,0,1.5364,1.5369,1.5376,1.5381,1.5413,1.5433,1.5437,1.5453,1.5457,1.5461,1.5476,1.5485,1.5522,1.5519,1.5524,1.5527,1.5562,1.5563,1.5563,1.5548,1.5547,1.5546,0,0,0,0,0,0,1.5343,1.5373,1.538,1.5395,1.5411,1.5436,1.5442,1.5451,1.5467,1.5468,1.5488,1.5493,1.5507,1.5519,1.5516,1.5539,1.5543,1.5544,1.553,1.553,1.5529,1.5526,1.5529,0,0,0,0,0,1.5341,1.5354,1.5379,1.5389,1.5397,1.5418,1.5427,1.5438,1.5456,1.5463,1.548,1.5496,1.5512,1.5521,1.5536,1.555,1.5556,1.5554,1.5554,1.5553,1.5554,1.5563,1.5563,1.5563,1.5563,1.5563,0,0,1.5335,1.5353,1.536,1.5386,1.54,1.5413,1.5424,1.5437,1.5448,1.5465,1.5481,1.5494,1.5514,1.5529,1.5536,1.5539,1.5555,1.5553,1.5552,1.5554,1.5563,1.5563,1.5563,1.5563,1.5563,1.5563,0,0,1.5332,1.5346,1.5357,1.5371,1.5393,1.5407,1.5409,1.5433,1.5443,1.5459,1.5473,1.5486,1.5511,1.5526,1.5536,1.554,1.5549,1.5544,1.554,1.5549,1.5549,1.5549,1.5551,1.5551,1.5545,1.5545,1.5545,0,1.5322,1.5343,1.5361,1.5374,1.5386,1.5403,1.5414,1.5427,1.5452,1.5459,1.5462,1.5496,1.551,1.5529,1.553,1.5538,1.5542,1.5541,1.5547,1.5547,1.5548,1.555,1.5551,1.5544,1.5544,1.5544,1.5544,0,1.5331,1.5345,1.5351,1.5376,1.5388,1.54,1.542,1.543,1.544,1.5454,1.5472,1.549,1.551,1.5515,1.5525,1.5536,1.5537,1.5543,1.5548,1.5547,1.5549,1.555,1.5543,1.5543,1.5543,1.5544,0,0,1.5315,1.5351,1.5353,1.5365,1.539,1.5402,1.5415,1.5435,1.5444,1.546,1.5473,1.5495,1.5501,1.5513,1.5525,1.5532,1.5535,1.5538,1.5538,1.5537,1.555,1.5545,1.5546,1.5542,1.5542,1.5542,1.5548,0,1.5316,1.5341,1.5358,1.5377,1.5391,1.5408,1.542,1.5437,1.545,1.5464,1.5479,1.5495,1.5501,1.5509,1.5517,1.5533,1.5538,1.5533,1.5554,1.5554,1.5549,1.5547,1.5542,1.5547,1.5549,1.5549,1.5549,0,1.5321,1.5338,1.5358,1.5383,1.539,1.54,1.5421,1.5434,1.5454,1.5463,1.5477,1.549,1.5505,1.5508,1.553,1.5526,1.5536,1.5545,1.5546,1.5549,1.5552,1.5551,1.5549,1.555,1.5551,1.5551,1.5551,0,1.5309,1.5337,1.5353,1.5363,1.5392,1.5399,1.5412,1.5432,1.5443,1.5461,1.5469,1.5488,1.5498,1.5513,1.553,1.5531,1.5551,1.5555,1.556,1.5559,1.5563,1.5563,1.5563,1.5568,1.5568,1.5568,1.5568,0,1.5309,1.532,1.5349,1.5358,1.5372,1.5392,1.5405,1.5419,1.5437,1.545,1.5466,1.5478,1.55,1.5515,1.5529,1.5545,1.555,1.5558,1.5562,1.5557,1.5556,1.5564,1.5564,1.5568,1.5568,1.5568,1.5568,0,1.5298,1.5317,1.5336,1.5363,1.537,1.5379,1.5402,1.5412,1.5427,1.5444,1.5449,1.5472,1.549,1.5509,1.5534,1.5543,1.5559,1.5564,1.5553,1.5555,1.5558,1.5558,1.5565,1.5567,1.5569,1.5569,1.5569,0,1.5297,1.5306,1.5335,1.5345,1.5357,1.5373,1.5385,1.5405,1.5417,1.5441,1.5449,1.5468,1.5485,1.5514,1.5533,1.5552,1.5558,1.5559,1.5561,1.5556,1.5559,1.5559,1.556,1.5558,1.5558,1.5558,1.5558,0,1.5293,1.5302,1.5319,1.534,1.5354,1.537,1.5388,1.5395,1.5419,1.5431,1.5451,1.5464,1.549,1.5509,1.5531,1.5544,1.5555,1.5557,1.556,1.5555,1.5549,1.5553,1.5552,1.5557,1.5557,1.5557,1.5557,1.5557,1.5288,1.5298,1.5319,1.5338,1.5353,1.537,1.5381,1.5398,1.5414,1.5437,1.5448,1.5467,1.5488,1.5519,1.5532,1.5548,1.5551,1.5553,1.5554,1.5555,1.5554,1.5546,1.5552,1.5552,1.5552,1.5552,1.5552,0,1.5286,1.5301,1.5318,1.5342,1.5357,1.5366,1.5386,1.5398,1.5415,1.5434,1.5451,1.5473,1.5493,1.5514,1.5534,1.5543,1.5549,1.5548,1.5548,1.5551,1.555,1.5546,1.5543,1.5543,1.5543,1.5543,1.5543,1.5543,1.5286,1.5304,1.5316,1.5342,1.5357,1.5376,1.5387,1.5403,1.5418,1.5443,1.5459,1.5473,1.5493,1.5515,1.5534,1.5539,1.5546,1.5544,1.5551,1.555,1.5551,1.5551,1.5548,1.5546,1.5546,1.5551,1.5551,1.5551]},{"header":{"parameterUnit":"m.s-1","parameterCategory":1,"la1":30.2991,"la2":30.254,"lo1":-89.0895,"lo2":-89.0444,"dy":0.0017,"dx":0.0017,"nx":28,"ny":28,"refTime":"2026-02-02T09:00:00:Z","depth":0,"parameterNumber":3,"parameterNumberName":"V-component_of_WINDS"},"data":[0,0,0,0,0,0,0,0,0,0,0,0,0,0,0,0,0,0,0,0,0,0,0,0,0,0,0,0,0,0,0,0,0,0,0,0,0,0,0,0,0,0,0,0,0,0,0,0,0,0,0,0,0,0,0,0,0,0,0.0117,0.0117,0,0.007,0.0069,0.0069,0.0067,0.0068,0.0068,0.0069,0.0019,0.0017,0.0015,0,0,0,0,0,0,0,0,0,0,0,0,0,0.0202,0.0201,0.0117,0.0117,0.0116,0.007,0.0069,0.0069,0.0067,0.0068,0.0069,0.0069,0.0019,0.0017,0.0015,0,0,0,0,0,0,0,0,0,0,0,0,0,0.0161,0.02,0.0117,0.011,0.0109,0.007,0.0069,0.0069,0.0067,0.0068,0.0069,0.007,0.002,0.0017,0.0015,-0.002,0,0,0.0006,0.0005,0,0,0,0,0,0,0,0,0.0164,0.0158,0.0111,0.011,0.0109,0.0075,0.0081,0.0039,0.0067,0.0083,0.0069,0.007,0.0037,0.0033,0.0022,-0.0022,-0.0024,0.0006,0.0004,0.0003,0.0002,0,0,0,0,0,0,0,0.0166,0.016,0.0098,0.0111,0.0109,0.0108,0.0103,0.0073,0.0055,0.0081,0.0081,0.0076,0.0036,0.0025,0.0021,-0.0025,0.0006,0.0003,0.0002,0.0001,-0.0103,-0.0104,0,0,0,0,0,0,0.0171,0.0163,0.01,0.0097,0.0139,0.0105,0.01,0.0085,0.0056,0.0052,0.0075,0.0076,0.0029,0.0024,0.0019,-0.0026,0.0003,0.0,-0.0001,-0.0102,-0.0103,-0.0104,0,0,0,0,0,0,0.0173,0.0166,0.0102,0.013,0.0121,0.0103,0.0087,0.0084,0.0072,0.0051,0.0048,0.0067,0.0029,0.0023,-0.0011,-0.0027,-0.0001,-0.0004,-0.0101,-0.0102,-0.0104,-0.0113,0,0,0,0,0,0,0.0176,0.0166,0.0154,0.0129,0.012,0.0074,0.0086,0.0082,0.0068,0.0068,0.0042,0.0039,0.003,-0.0007,-0.0014,-0.0031,-0.0006,-0.0099,-0.0101,-0.0103,-0.0112,-0.0115,-0.0118,0,0,0,0,0,0.0179,0.0153,0.0153,0.0146,0.0104,0.0073,0.0068,0.0058,0.0066,0.0053,0.0039,0.0039,-0.0024,-0.001,-0.0018,-0.0036,-0.0098,-0.0101,-0.0103,-0.011,-0.0114,-0.0118,0,0,0,0,0,0,0.0176,0.015,0.015,0.0116,0.0097,0.0073,0.0056,0.0055,0.0032,0.0034,0.0022,0.0016,-0.0018,-0.003,-0.0014,-0.0072,-0.006,-0.0065,-0.0063,-0.0067,-0.007,-0.0067,-0.0008,0,0,0,0,0,0.0172,0.015,0.0128,0.01,0.009,0.0075,0.0061,0.0055,0.0034,0.0026,0.001,-0.0011,-0.0036,-0.0052,-0.0076,-0.0113,-0.012,-0.013,-0.0133,-0.0135,-0.0139,-0.0163,-0.0168,-0.0112,-0.0112,-0.0112,0,0,0.0162,0.0145,0.0132,0.0099,0.0083,0.0059,0.0068,0.0043,0.0024,0.0022,-0.0011,-0.0024,-0.0048,-0.0084,-0.0101,-0.0096,-0.0156,-0.0138,-0.014,-0.0143,-0.0166,-0.0171,-0.0176,-0.0114,-0.0114,-0.0113,0,0,0.0132,0.0118,0.0092,0.0076,0.0053,0.0042,0.0036,0.0012,0.0003,-0.003,-0.0033,-0.0056,-0.0097,-0.0115,-0.013,-0.0169,-0.017,-0.0176,-0.0193,-0.0216,-0.022,-0.0224,-0.024,-0.0246,-0.018,-0.018,-0.018,0,0.0123,0.0088,0.0079,0.0053,0.0037,0.0035,0.0008,-0.0008,-0.0038,-0.0049,-0.0043,-0.0097,-0.0113,-0.0155,-0.0165,-0.0176,-0.0185,-0.0174,-0.0219,-0.0223,-0.0227,-0.0242,-0.0248,-0.018,-0.018,-0.018,-0.018,0,0.0077,0.0052,0.0034,0.0004,-0.0014,-0.004,-0.0054,-0.0071,-0.0075,-0.0087,-0.0122,-0.0142,-0.0171,-0.0181,-0.0185,-0.0224,-0.0221,-0.0216,-0.0205,-0.0233,-0.0248,-0.0253,-0.0181,-0.0181,-0.0181,-0.0181,0,0,0.0044,0.0009,0.0002,-0.0012,-0.004,-0.006,-0.0087,-0.0115,-0.0131,-0.0152,-0.0177,-0.0213,-0.021,-0.0226,-0.0233,-0.0252,-0.0285,-0.0246,-0.0247,-0.0254,-0.0332,-0.0337,-0.0343,-0.0285,-0.0287,-0.0287,-0.0331,0,0.001,-0.0039,-0.0048,-0.0091,-0.0115,-0.0119,-0.0143,-0.0164,-0.0176,-0.0199,-0.0212,-0.0239,-0.0231,-0.0242,-0.0261,-0.0277,-0.0301,-0.0274,-0.0311,-0.0312,-0.0306,-0.0351,-0.0355,-0.0395,-0.0336,-0.0337,-0.0338,0,-0.0037,-0.006,-0.0105,-0.0131,-0.0142,-0.0163,-0.0191,-0.0213,-0.0237,-0.0244,-0.0264,-0.0269,-0.0299,-0.0286,-0.0329,-0.031,-0.0326,-0.0336,-0.0338,-0.0343,-0.0328,-0.0359,-0.0407,-0.0414,-0.0347,-0.0346,-0.0346,0,-0.0059,-0.0101,-0.0134,-0.0146,-0.0177,-0.0192,-0.0206,-0.0229,-0.0246,-0.027,-0.0282,-0.031,-0.0326,-0.0348,-0.0361,-0.0349,-0.0405,-0.0391,-0.0414,-0.0414,-0.0426,-0.0426,-0.048,-0.0433,-0.0433,-0.0433,-0.0433,0,-0.0097,-0.0125,-0.0145,-0.0165,-0.0198,-0.0209,-0.0241,-0.0254,-0.0275,-0.03,-0.0304,-0.0327,-0.0342,-0.0368,-0.0378,-0.0415,-0.0421,-0.043,-0.0432,-0.043,-0.0429,-0.0442,-0.044,-0.0435,-0.0434,-0.0434,-0.0434,0,-0.0128,-0.0141,-0.0178,-0.0204,-0.0212,-0.0235,-0.0258,-0.0279,-0.0291,-0.0323,-0.0331,-0.035,-0.0381,-0.0396,-0.0434,-0.0442,-0.0483,-0.0483,-0.0475,-0.0477,-0.0499,-0.0498,-0.0565,-0.0575,-0.052,-0.052,-0.0521,0,-0.0152,-0.0174,-0.0203,-0.022,-0.0234,-0.026,-0.0278,-0.029,-0.0309,-0.0339,-0.0357,-0.0388,-0.0413,-0.0463,-0.0482,-0.0511,-0.0514,-0.0535,-0.0518,-0.0516,-0.0517,-0.0516,-0.052,-0.0539,-0.0539,-0.054,-0.054,0,-0.0195,-0.0201,-0.0226,-0.0254,-0.0275,-0.0298,-0.0321,-0.0334,-0.0351,-0.0372,-0.0403,-0.0423,-0.0463,-0.0494,-0.0526,-0.0541,-0.0545,-0.0545,-0.0552,-0.0551,-0.0547,-0.0552,-0.0486,-0.0544,-0.0543,-0.0543,-0.0543,-0.0543,-0.0224,-0.0245,-0.0269,-0.0298,-0.0316,-0.0338,-0.0359,-0.0375,-0.0401,-0.0434,-0.044,-0.0474,-0.05,-0.0543,-0.0559,-0.0587,-0.0583,-0.0592,-0.0595,-0.0598,-0.0601,-0.0541,-0.0593,-0.0593,-0.0593,-0.0593,-0.0593,0,-0.0269,-0.0285,-0.0311,-0.0343,-0.0366,-0.0366,-0.0392,-0.0411,-0.0441,-0.0464,-0.049,-0.0528,-0.0559,-0.058,-0.0612,-0.0631,-0.0634,-0.0639,-0.0639,-0.0643,-0.0602,-0.0593,-0.0637,-0.0637,-0.0637,-0.0637,-0.0637,-0.0637,-0.0295,-0.0331,-0.034,-0.0386,-0.0402,-0.0435,-0.045,-0.0471,-0.049,-0.0532,-0.0558,-0.0571,-0.0595,-0.0629,-0.0658,-0.0664,-0.0677,-0.0683,-0.0689,-0.065,-0.0646,-0.0641,-0.0634,-0.0685,-0.0685,-0.0729,-0.0729,-0.0729]}]]